SAS105 EDDF-EPWA

Flight info

Callsign SAS105
Flight time 1h 10m
Altitude 39000
Route SULUS L984 OKG DCT BALTU DCT LEGAZ DCT LAGAR DCT OKENO Q277 AGAVA
Aircraft B77W/H-SDE1E2E3FGHIJ2J3J4J5M1RWXY/LB1D1

Departure

Time 2026-05-06 19:28
Airport Frankfurt Main Airport (EDDF)

Arrival

Time 2026-05-06 20:39
Airport Warsaw Chopin Airport (EPWA)
Time Latitude Longitude Altitude Speed Heading
2026-05-06 18:56 50.04991 8.58433 364 ft 0 kts 339°
2026-05-06 19:13 50.04981 8.58439 368 ft 3 kts 339°
2026-05-06 19:14 50.04961 8.58451 369 ft 3 kts 339°
2026-05-06 19:14 50.04941 8.58463 365 ft 3 kts 338°
2026-05-06 19:14 50.04924 8.58481 368 ft 3 kts 313°
2026-05-06 19:14 50.04913 8.58509 364 ft 3 kts 252°
2026-05-06 19:15 50.04914 8.58513 364 ft 0 kts 249°
2026-05-06 19:16 50.04913 8.58513 364 ft 0 kts 249°
2026-05-06 19:16 50.04912 8.58507 364 ft 0 kts 249°
2026-05-06 19:17 50.04912 8.58506 364 ft 1 kts 249°
2026-05-06 19:17 50.04909 8.58495 364 ft 1 kts 249°
2026-05-06 19:18 50.04904 8.58477 367 ft 2 kts 249°
2026-05-06 19:18 50.04898 8.58449 369 ft 3 kts 249°
2026-05-06 19:18 50.04897 8.58446 369 ft 0 kts 249°
2026-05-06 19:19 50.04883 8.58391 366 ft 18 kts 249°
2026-05-06 19:19 50.04824 8.58147 371 ft 25 kts 249°
2026-05-06 19:20 50.04731 8.57924 370 ft 25 kts 225°
2026-05-06 19:20 50.04655 8.57684 368 ft 25 kts 250°
2026-05-06 19:20 50.04595 8.57430 368 ft 25 kts 249°
2026-05-06 19:20 50.04535 8.57180 366 ft 22 kts 250°
2026-05-06 19:21 50.04515 8.57095 366 ft 0 kts 250°
2026-05-06 19:22 50.04515 8.57094 366 ft 0 kts 250°
2026-05-06 19:22 50.04510 8.57075 367 ft 11 kts 250°
2026-05-06 19:22 50.04450 8.56819 370 ft 29 kts 250°
2026-05-06 19:23 50.04378 8.56522 368 ft 29 kts 249°
2026-05-06 19:23 50.04312 8.56242 368 ft 26 kts 250°
2026-05-06 19:23 50.04248 8.55973 368 ft 26 kts 249°
2026-05-06 19:23 50.04183 8.55706 365 ft 26 kts 249°
2026-05-06 19:24 50.04119 8.55437 365 ft 26 kts 250°
2026-05-06 19:24 50.04059 8.55184 358 ft 21 kts 249°
2026-05-06 19:24 50.04041 8.55110 363 ft 0 kts 249°
2026-05-06 19:24 50.04040 8.55107 363 ft 0 kts 249°
2026-05-06 19:25 50.04034 8.55081 363 ft 12 kts 249°
2026-05-06 19:25 50.03979 8.54850 365 ft 26 kts 250°
2026-05-06 19:25 50.03915 8.54581 358 ft 27 kts 249°
2026-05-06 19:25 50.03837 8.54320 360 ft 27 kts 235°
2026-05-06 19:26 50.03760 8.54060 357 ft 27 kts 250°
2026-05-06 19:26 50.03695 8.53790 353 ft 27 kts 250°
2026-05-06 19:26 50.03629 8.53521 352 ft 27 kts 249°
2026-05-06 19:26 50.03565 8.53252 353 ft 27 kts 249°
2026-05-06 19:27 50.03501 8.52987 351 ft 24 kts 249°
2026-05-06 19:27 50.03445 8.52775 337 ft 18 kts 249°
2026-05-06 19:27 50.03394 8.52615 335 ft 17 kts 220°
2026-05-06 19:27 50.03280 8.52591 337 ft 17 kts 181°
2026-05-06 19:28 50.03126 8.52587 339 ft 35 kts 180°
2026-05-06 19:28 50.02594 8.52600 337 ft 119 kts 179°
2026-05-06 19:28 50.01529 8.52619 364 ft 185 kts 179°
2026-05-06 19:28 50.00212 8.52681 1114 ft 190 kts 180°
2026-05-06 19:29 49.98892 8.52693 1968 ft 193 kts 182°
2026-05-06 19:29 49.97542 8.52669 2783 ft 194 kts 180°
2026-05-06 19:29 49.96286 8.53383 3472 ft 201 kts 136°
2026-05-06 19:29 49.95542 8.55253 4033 ft 213 kts 118°
2026-05-06 19:30 49.94811 8.57456 4048 ft 239 kts 120°
2026-05-06 19:30 49.94123 8.59796 4168 ft 241 kts 103°
2026-05-06 19:30 49.94005 8.62419 4782 ft 249 kts 94°
2026-05-06 19:30 49.93906 8.65127 5639 ft 252 kts 95°
2026-05-06 19:31 49.93769 8.67832 6371 ft 250 kts 102°
2026-05-06 19:31 49.93043 8.70232 6586 ft 248 kts 138°
2026-05-06 19:31 49.90279 8.73381 7064 ft 248 kts 148°
2026-05-06 19:32 49.88880 8.74940 7415 ft 246 kts 144°
2026-05-06 19:32 49.87779 8.77007 7528 ft 254 kts 121°
2026-05-06 19:32 49.86951 8.79478 7605 ft 263 kts 121°
2026-05-06 19:32 49.86054 8.82034 7717 ft 279 kts 121°
2026-05-06 19:33 49.85089 8.84721 7821 ft 291 kts 121°
2026-05-06 19:33 49.84095 8.87474 8156 ft 293 kts 121°
2026-05-06 19:33 49.83100 8.90226 8574 ft 293 kts 121°
2026-05-06 19:33 49.82100 8.92982 8950 ft 294 kts 121°
2026-05-06 19:34 49.81092 8.95757 9313 ft 297 kts 121°
2026-05-06 19:34 49.80077 8.98550 9687 ft 299 kts 121°
2026-05-06 19:34 49.79046 9.01381 9936 ft 307 kts 121°
2026-05-06 19:34 49.77980 9.04302 10043 ft 324 kts 121°
2026-05-06 19:35 49.76845 9.07404 10193 ft 338 kts 121°
2026-05-06 19:35 49.75813 9.10734 10252 ft 350 kts 109°
2026-05-06 19:35 49.75190 9.14453 10371 ft 366 kts 103°
2026-05-06 19:35 49.74644 9.18382 10527 ft 381 kts 103°
2026-05-06 19:36 49.74053 9.22435 10711 ft 390 kts 104°
2026-05-06 19:36 49.73415 9.26528 10765 ft 392 kts 105°
2026-05-06 19:36 49.72759 9.30611 10919 ft 392 kts 105°
2026-05-06 19:36 49.72093 9.34704 12020 ft 391 kts 105°
2026-05-06 19:37 49.71429 9.38767 13392 ft 391 kts 105°
2026-05-06 19:37 49.70757 9.42866 14474 ft 395 kts 105°
2026-05-06 19:37 49.70079 9.47003 15494 ft 401 kts 105°
2026-05-06 19:37 49.69623 9.49777 16135 ft 404 kts 105°
2026-05-06 19:38 49.68687 9.55467 17461 ft 412 kts 106°
2026-05-06 19:38 49.67975 9.59784 18411 ft 418 kts 106°
2026-05-06 19:38 49.67269 9.64142 19250 ft 418 kts 103°
2026-05-06 19:38 49.67085 9.68675 19929 ft 432 kts 84°
2026-05-06 19:39 49.67842 9.73162 20648 ft 435 kts 73°
2026-05-06 19:39 49.68739 9.77671 21338 ft 443 kts 75°
2026-05-06 19:39 49.69580 9.82275 22191 ft 446 kts 76°
2026-05-06 19:39 49.70397 9.86922 23077 ft 449 kts 77°
2026-05-06 19:40 49.71213 9.91603 23805 ft 454 kts 77°
2026-05-06 19:40 49.72272 9.96229 24440 ft 462 kts 65°
2026-05-06 19:40 49.73982 10.00455 24761 ft 465 kts 61°
2026-05-06 19:40 49.75574 10.04872 25130 ft 473 kts 66°
2026-05-06 19:41 49.76902 10.09471 25639 ft 477 kts 72°
2026-05-06 19:41 49.78007 10.14324 26279 ft 479 kts 75°
2026-05-06 19:41 49.79069 10.19213 26954 ft 481 kts 75°
2026-05-06 19:41 49.80125 10.24140 27559 ft 484 kts 75°
2026-05-06 19:42 49.81188 10.29106 28108 ft 488 kts 75°
2026-05-06 19:42 49.82267 10.34111 28615 ft 492 kts 75°
2026-05-06 19:42 49.83361 10.39161 29114 ft 495 kts 75°
2026-05-06 19:42 49.84464 10.44230 29586 ft 499 kts 75°
2026-05-06 19:43 49.85576 10.49335 29960 ft 502 kts 76°
2026-05-06 19:43 49.86700 10.54501 30164 ft 509 kts 76°
2026-05-06 19:43 49.87833 10.59719 30424 ft 513 kts 76°
2026-05-06 19:43 49.88969 10.64964 30822 ft 513 kts 76°
2026-05-06 19:44 49.90103 10.70202 31290 ft 512 kts 76°
2026-05-06 19:44 49.91234 10.75447 31713 ft 513 kts 76°
2026-05-06 19:44 49.92363 10.80698 32066 ft 515 kts 76°
2026-05-06 19:44 49.93494 10.85979 32379 ft 517 kts 76°
2026-05-06 19:45 49.94627 10.91283 32797 ft 517 kts 76°
2026-05-06 19:45 49.95756 10.96581 33229 ft 516 kts 75°
2026-05-06 19:45 49.96885 11.01896 33473 ft 520 kts 75°
2026-05-06 19:45 49.98018 11.07249 33699 ft 524 kts 75°
2026-05-06 19:46 49.98771 11.10814 33929 ft 524 kts 75°
2026-05-06 19:46 49.99906 11.16190 34332 ft 522 kts 75°
2026-05-06 19:46 50.01032 11.21528 34754 ft 520 kts 75°
2026-05-06 19:46 50.02517 11.28597 35261 ft 518 kts 75°
2026-05-06 19:47 50.03646 11.33994 35606 ft 518 kts 75°
2026-05-06 19:47 50.04381 11.37520 35821 ft 518 kts 75°
2026-05-06 19:47 50.05492 11.42855 36159 ft 517 kts 75°
2026-05-06 19:47 50.06598 11.48183 36506 ft 516 kts 75°
2026-05-06 19:48 50.07699 11.53499 36771 ft 517 kts 75°
2026-05-06 19:48 50.08800 11.58834 37051 ft 517 kts 75°
2026-05-06 19:48 50.09898 11.64162 37416 ft 516 kts 75°
2026-05-06 19:48 50.10975 11.69403 37802 ft 514 kts 75°
2026-05-06 19:49 50.12059 11.74691 38175 ft 512 kts 75°
2026-05-06 19:49 50.13138 11.79971 38489 ft 511 kts 75°
2026-05-06 19:49 50.14214 11.85251 38688 ft 512 kts 75°
2026-05-06 19:49 50.15291 11.90552 38731 ft 515 kts 75°
2026-05-06 19:50 50.17451 12.01222 38774 ft 517 kts 75°
2026-05-06 19:50 50.19621 12.12002 38799 ft 524 kts 75°
2026-05-06 19:51 50.21806 12.22922 38791 ft 530 kts 75°
2026-05-06 19:51 50.24007 12.33967 38790 ft 534 kts 75°
2026-05-06 19:52 50.26206 12.45073 38791 ft 536 kts 75°
2026-05-06 19:52 50.28401 12.56216 38773 ft 533 kts 76°
2026-05-06 19:53 50.30554 12.67206 38782 ft 526 kts 76°
2026-05-06 19:53 50.32681 12.78138 38808 ft 525 kts 76°
2026-05-06 19:54 50.34796 12.89080 38799 ft 525 kts 76°
2026-05-06 19:54 50.36888 12.99958 38794 ft 525 kts 76°
2026-05-06 19:55 50.38987 13.10926 38785 ft 526 kts 76°
2026-05-06 19:55 50.41077 13.21914 38776 ft 526 kts 76°
2026-05-06 19:56 50.43160 13.32937 38770 ft 527 kts 77°
2026-05-06 19:56 50.45233 13.43969 38770 ft 527 kts 77°
2026-05-06 19:57 50.47297 13.55014 38769 ft 528 kts 77°
2026-05-06 19:57 50.49352 13.66076 38778 ft 528 kts 77°
2026-05-06 19:58 50.51399 13.77165 38779 ft 528 kts 77°
2026-05-06 19:58 50.53437 13.88271 38769 ft 529 kts 77°
2026-05-06 19:59 50.55472 13.99432 38783 ft 531 kts 77°
2026-05-06 19:59 50.57498 14.10606 38757 ft 532 kts 77°
2026-05-06 20:00 50.59508 14.21761 38769 ft 533 kts 77°
2026-05-06 20:00 50.61523 14.33015 38762 ft 534 kts 77°
2026-05-06 20:01 50.63532 14.44301 38768 ft 535 kts 77°
2026-05-06 20:01 50.65526 14.55581 38776 ft 535 kts 78°
2026-05-06 20:02 50.67515 14.66906 38768 ft 536 kts 78°
2026-05-06 20:02 50.69496 14.78248 38786 ft 537 kts 78°
2026-05-06 20:03 50.71468 14.89614 38786 ft 538 kts 78°
2026-05-06 20:03 50.73435 15.01026 38788 ft 539 kts 78°
2026-05-06 20:04 50.75389 15.12441 38796 ft 539 kts 78°
2026-05-06 20:04 50.77335 15.23880 38783 ft 539 kts 78°
2026-05-06 20:05 50.79289 15.35334 38792 ft 541 kts 76°
2026-05-06 20:05 50.81894 15.46538 38798 ft 544 kts 70°
2026-05-06 20:06 50.84780 15.57520 38800 ft 544 kts 69°
2026-05-06 20:06 50.87669 15.68586 38809 ft 544 kts 70°
2026-05-06 20:07 50.90505 15.79690 38801 ft 543 kts 70°
2026-05-06 20:07 50.93309 15.90809 38814 ft 543 kts 70°
2026-05-06 20:08 50.96118 16.02005 38808 ft 544 kts 70°
2026-05-06 20:08 50.98890 16.13095 38831 ft 544 kts 70°
2026-05-06 20:09 51.01676 16.24289 38808 ft 545 kts 70°
2026-05-06 20:09 51.04451 16.35488 38809 ft 544 kts 70°
2026-05-06 20:10 51.07213 16.46698 38806 ft 545 kts 70°
2026-05-06 20:10 51.09964 16.57922 38804 ft 544 kts 70°
2026-05-06 20:11 51.12705 16.69160 38797 ft 545 kts 70°
2026-05-06 20:11 51.15419 16.80345 38808 ft 545 kts 71°
2026-05-06 20:12 51.18140 16.91618 38798 ft 545 kts 70°
2026-05-06 20:12 51.20850 17.02900 38802 ft 545 kts 71°
2026-05-06 20:13 51.23548 17.14193 38803 ft 545 kts 71°
2026-05-06 20:13 51.26235 17.25503 38800 ft 545 kts 71°
2026-05-06 20:14 51.28916 17.36841 38795 ft 545 kts 71°
2026-05-06 20:14 51.31583 17.48179 38780 ft 544 kts 71°
2026-05-06 20:15 51.34231 17.59499 38789 ft 544 kts 71°
2026-05-06 20:15 51.36870 17.70838 38793 ft 543 kts 71°
2026-05-06 20:16 51.39494 17.82174 38800 ft 543 kts 71°
2026-05-06 20:16 51.42107 17.93525 38800 ft 542 kts 71°
2026-05-06 20:17 51.44691 18.04807 38775 ft 542 kts 71°
2026-05-06 20:17 51.47276 18.16151 38789 ft 541 kts 71°
2026-05-06 20:18 51.49842 18.27477 38793 ft 540 kts 71°
2026-05-06 20:18 51.52395 18.38809 38789 ft 540 kts 71°
2026-05-06 20:19 51.54939 18.50158 38799 ft 539 kts 72°
2026-05-06 20:19 51.56740 18.61815 38780 ft 537 kts 83°
2026-05-06 20:20 51.57305 18.73724 38756 ft 530 kts 91°
2026-05-06 20:20 51.57351 18.79661 38272 ft 534 kts 91°
2026-05-06 20:20 51.57380 18.85663 37264 ft 538 kts 92°
2026-05-06 20:21 51.57415 18.91685 36272 ft 539 kts 92°
2026-05-06 20:21 51.57462 18.97713 35302 ft 539 kts 92°
2026-05-06 20:21 51.57518 19.03729 34355 ft 539 kts 92°
2026-05-06 20:21 51.57580 19.09753 33361 ft 539 kts 92°
2026-05-06 20:22 51.57642 19.15772 32304 ft 538 kts 92°
2026-05-06 20:22 51.57700 19.21780 31279 ft 536 kts 93°
2026-05-06 20:22 51.57755 19.27757 30293 ft 533 kts 93°
2026-05-06 20:22 51.57805 19.33699 29240 ft 530 kts 93°
2026-05-06 20:23 51.57850 19.39518 28156 ft 526 kts 93°
2026-05-06 20:23 51.57891 19.45379 27096 ft 522 kts 93°
2026-05-06 20:23 51.57929 19.51189 26078 ft 518 kts 93°
2026-05-06 20:23 51.57966 19.56971 25092 ft 515 kts 93°
2026-05-06 20:24 51.57999 19.62705 24144 ft 512 kts 93°
2026-05-06 20:24 51.58026 19.68425 23365 ft 507 kts 93°
2026-05-06 20:24 51.58047 19.74058 22586 ft 500 kts 93°
2026-05-06 20:24 51.58064 19.79592 21905 ft 490 kts 93°
2026-05-06 20:25 51.58079 19.85018 21248 ft 480 kts 93°
2026-05-06 20:25 51.58092 19.90342 20553 ft 473 kts 93°
2026-05-06 20:25 51.58102 19.95608 19793 ft 468 kts 93°
2026-05-06 20:25 51.58053 20.00812 19054 ft 463 kts 95°
2026-05-06 20:26 51.57887 20.05949 18361 ft 458 kts 96°
2026-05-06 20:26 51.57687 20.11041 17628 ft 453 kts 97°
2026-05-06 20:26 51.57502 20.16058 16908 ft 447 kts 96°
2026-05-06 20:26 51.57340 20.21011 16250 ft 441 kts 96°
2026-05-06 20:27 51.57187 20.25901 15599 ft 435 kts 96°
2026-05-06 20:27 51.57031 20.30734 14935 ft 430 kts 96°
2026-05-06 20:27 51.56870 20.35507 14291 ft 425 kts 96°
2026-05-06 20:27 51.56707 20.40225 13674 ft 421 kts 96°
2026-05-06 20:28 51.56724 20.44804 12853 ft 417 kts 85°
2026-05-06 20:28 51.57596 20.49237 12019 ft 413 kts 67°
2026-05-06 20:28 51.58814 20.53440 11141 ft 416 kts 68°
2026-05-06 20:28 51.59971 20.57679 10538 ft 411 kts 69°
2026-05-06 20:29 51.61075 20.61875 10074 ft 404 kts 70°
2026-05-06 20:29 51.62163 20.66085 9867 ft 410 kts 70°
2026-05-06 20:29 51.63250 20.70306 9808 ft 406 kts 70°
2026-05-06 20:29 51.64322 20.74471 9782 ft 398 kts 70°
2026-05-06 20:30 51.65482 20.78474 9764 ft 395 kts 62°
2026-05-06 20:30 51.68767 20.85453 9178 ft 388 kts 51°
2026-05-06 20:30 51.70524 20.88744 8652 ft 386 kts 50°
2026-05-06 20:31 51.72282 20.92013 8136 ft 385 kts 50°
2026-05-06 20:31 51.74033 20.95258 7685 ft 382 kts 50°
2026-05-06 20:31 51.75782 20.98493 7252 ft 379 kts 50°
2026-05-06 20:31 51.77483 21.01637 6826 ft 376 kts 50°
2026-05-06 20:32 51.79201 21.04811 6391 ft 374 kts 49°
2026-05-06 20:32 51.80906 21.07962 5974 ft 371 kts 49°
2026-05-06 20:32 51.82573 21.11045 5889 ft 358 kts 49°
2026-05-06 20:32 51.84150 21.13960 5716 ft 330 kts 49°
2026-05-06 20:33 51.85605 21.16630 5517 ft 302 kts 47°
2026-05-06 20:33 51.86640 21.18049 5372 ft 289 kts 30°
2026-05-06 20:33 51.88468 21.19069 5108 ft 275 kts
2026-05-06 20:33 51.90347 21.18934 4709 ft 268 kts 345°
2026-05-06 20:34 51.92094 21.17986 4286 ft 263 kts 332°
2026-05-06 20:34 51.93712 21.16654 3904 ft 259 kts 328°
2026-05-06 20:34 51.95287 21.15254 3533 ft 256 kts 328°
2026-05-06 20:34 51.96845 21.13884 3166 ft 254 kts 328°
2026-05-06 20:35 51.98417 21.12515 3007 ft 257 kts 329°
2026-05-06 20:35 51.99962 21.11177 2977 ft 245 kts 329°
2026-05-06 20:35 52.01419 21.09916 2959 ft 230 kts 328°
2026-05-06 20:35 52.02782 21.08733 2960 ft 214 kts 328°
2026-05-06 20:36 52.04046 21.07634 2909 ft 202 kts 328°
2026-05-06 20:36 52.05286 21.06552 2619 ft 201 kts 328°
2026-05-06 20:36 52.06490 21.05506 2355 ft 191 kts 328°
2026-05-06 20:36 52.07662 21.04483 2107 ft 193 kts 328°
2026-05-06 20:37 52.08829 21.03468 1842 ft 184 kts 328°
2026-05-06 20:37 52.09914 21.02524 1599 ft 170 kts 328°
2026-05-06 20:37 52.10927 21.01640 1386 ft 165 kts 328°
2026-05-06 20:37 52.11939 21.00756 1188 ft 164 kts 328°
2026-05-06 20:38 52.12909 20.99907 959 ft 153 kts 331°
2026-05-06 20:38 52.13841 20.99096 774 ft 152 kts 332°
2026-05-06 20:38 52.14779 20.98270 540 ft 153 kts 333°
2026-05-06 20:38 52.15719 20.97454 373 ft 152 kts 334°
2026-05-06 20:39 52.16561 20.96724 354 ft 120 kts 331°
2026-05-06 20:39 52.17093 20.96273 353 ft 43 kts 341°
2026-05-06 20:39 52.17355 20.96250 350 ft 20 kts 12°
2026-05-06 20:39 52.17373 20.96262 344 ft 0 kts 28°
2026-05-06 20:40 52.17390 20.96284 357 ft 9 kts 39°
2026-05-06 20:40 52.17439 20.96420 355 ft 16 kts 61°
2026-05-06 20:41 52.17503 20.96575 352 ft 17 kts 50°
2026-05-06 20:41 52.17522 20.96691 355 ft 4 kts 123°
2026-05-06 20:41 52.17494 20.96712 348 ft 5 kts 155°
2026-05-06 20:41 52.17474 20.96740 351 ft 0 kts 137°
2026-05-06 20:42 52.17470 20.96747 353 ft 0 kts 137°